Weather History for KGXY - September, 2012

Change the Weather History Date:

Saturday, September 1, 2012

  Actual Average Record
Temperature  
Mean Temperature 74 °F -  
Max Temperature 93 °F 82 °F 96 °F (1983)
Min Temperature 55 °F 50 °F 41 °F (2005)
Cooling Degree Days 9    
Growing Degree Days 24 (Base 50)    
Moisture  
Dew Point 40 °F    
Average Humidity 31    
Maximum Humidity 54    
Minimum Humidity 15    
Precipitation  
Precipitation 0.00 in - - ()
Sea Level Pressure  
Sea Level Pressure 30.09 in    
Wind  
Wind Speed 6 mph (ESE)    
Max Wind Speed 20 mph    
Max Gust Speed 36 mph    
Visibility 9 miles    
Events      
Averages and records for this station are not official NWS values.
T = Trace of Precipitation, MM = Missing Value Source: NWS Daily Summary

Daily Weather History Graph

Daily Weather History Graph

Search for Another Location

Airport or City:

Trip Planner

Search our weather history database for the weather conditions in past years. The results will help you decide how hot, cold, wet, or windy it might be!

Date:

Astronomy

Sep. 01, 2012 Rise Set
Actual Time 6:26 AM MDT 7:29 PM MDT
Civil Twilight 5:58 AM MDT 7:57 PM MDT
Nautical Twilight 5:25 AM MDT 8:30 PM MDT
Astronomical Twilight 4:50 AM MDT 9:05 PM MDT
Moon 7:47 PM MDT (9/1) 7:36 AM MDT (9/1)
Length of Visible Light 13h 59m
Length of Day
13h 03m
Full, 98% of the Moon is Illuminated
Sep 1
Full
Sep 8
Last Quarter
Sep 15
New
Sep 22
First Quarter
Sep 29
Full

Hourly Weather History & Observations

Time (MDT) Temp. Dew Point Humidity Pressure Visibility Wind Dir Wind Speed Gust Speed Precip Events Conditions
12:15 AM 71.6 °F 33.8 °F 25% 30.12 in 10.0 mi SE 9.2 mph - N/A   Clear
12:35 AM 71.6 °F 33.8 °F 25% 30.12 in 10.0 mi ESE 6.9 mph - N/A   Clear
12:55 AM 69.8 °F 33.8 °F 27% 30.12 in 10.0 mi ESE 8.1 mph - N/A   Clear
1:15 AM 69.8 °F 33.8 °F 27% 30.12 in 10.0 mi SE 8.1 mph - N/A   Clear
1:35 AM 69.8 °F 33.8 °F 27% 30.12 in 10.0 mi ESE 5.8 mph - N/A   Clear
1:55 AM 68.0 °F 35.6 °F 30% 30.12 in 10.0 mi ESE 5.8 mph - N/A   Clear
2:15 AM 68.0 °F 35.6 °F 30% 30.13 in 10.0 mi East 4.6 mph - N/A   Clear
2:35 AM 66.2 °F 37.4 °F 35% 30.13 in 9.0 mi East 5.8 mph - N/A   Clear
2:55 AM 66.2 °F 35.6 °F 32% 30.13 in 7.0 mi ENE 5.8 mph - N/A   Clear
3:15 AM 66.2 °F 35.6 °F 32% 30.12 in 10.0 mi ENE 4.6 mph - N/A   Clear
3:35 AM 64.4 °F 37.4 °F 37% 30.13 in 10.0 mi ENE 4.6 mph - N/A   Partly Cloudy
4:15 AM 66.2 °F 35.6 °F 32% 30.12 in 10.0 mi ESE 5.8 mph - N/A   Clear
4:35 AM 64.4 °F 35.6 °F 34% 30.12 in 10.0 mi Calm Calm - N/A   Clear
4:55 AM 62.6 °F 35.6 °F 37% 30.12 in 9.0 mi NNE 5.8 mph - N/A   Clear
5:15 AM 60.8 °F 37.4 °F 42% 30.11 in 10.0 mi East 6.9 mph - N/A   Clear
5:35 AM 60.8 °F 37.4 °F 42% 30.11 in 10.0 mi ESE 6.9 mph - N/A   Clear
5:55 AM 57.2 °F 39.2 °F 51% 30.12 in 10.0 mi East 4.6 mph - N/A   Scattered Clouds
6:15 AM 55.4 °F 39.2 °F 54% 30.12 in 10.0 mi ENE 6.9 mph - N/A   Partly Cloudy
6:35 AM 55.4 °F 39.2 °F 54% 30.12 in 10.0 mi ENE 6.9 mph - N/A   Scattered Clouds
6:55 AM 57.2 °F 39.2 °F 51% 30.12 in 5.0 mi East 4.6 mph - N/A   Mostly Cloudy
7:15 AM 59.0 °F 39.2 °F 48% 30.13 in 4.0 mi Calm Calm - N/A   Overcast
7:35 AM 60.8 °F 42.8 °F 52% 30.13 in 9.0 mi Calm Calm - N/A   Overcast
7:55 AM 64.4 °F 41.0 °F 42% 30.13 in 5.0 mi SE 3.5 mph - N/A   Overcast
8:15 AM 68.0 °F 42.8 °F 40% 30.13 in 10.0 mi SSE 3.5 mph - N/A   Overcast
8:55 AM 71.6 °F 41.0 °F 33% 30.13 in 10.0 mi Calm Calm - N/A   Overcast
9:15 AM 73.4 °F 39.2 °F 29% 30.13 in 10.0 mi Calm Calm - N/A   Overcast
9:35 AM 71.6 °F 39.2 °F 31% 30.13 in 10.0 mi SW 3.5 mph - N/A   Overcast
10:15 AM 75.2 °F 42.8 °F 31% 30.12 in 10.0 mi Calm Calm - N/A   Overcast
10:35 AM 77.0 °F 42.8 °F 29% 30.13 in 10.0 mi East 3.5 mph - N/A   Overcast
10:55 AM 80.6 °F 42.8 °F 26% 30.12 in 10.0 mi SE 5.8 mph - N/A   Overcast
11:15 AM 82.4 °F 42.8 °F 25% 30.12 in 10.0 mi East 3.5 mph - N/A   Overcast
11:35 AM 84.2 °F 44.6 °F 25% 30.11 in 10.0 mi ESE 5.8 mph - N/A   Overcast
11:55 AM 84.2 °F 42.8 °F 23% 30.10 in 10.0 mi SSE 5.8 mph - N/A   Overcast
12:15 PM 86.0 °F 41.0 °F 20% 30.09 in 10.0 mi SSE 4.6 mph - N/A   Overcast
12:55 PM 89.6 °F 41.0 °F 18% 30.07 in 5.0 mi ESE 4.6 mph - N/A   Overcast
1:15 PM 91.4 °F 39.2 °F 16% 30.06 in 10.0 mi SE 8.1 mph - N/A   Overcast
1:35 PM 91.4 °F 41.0 °F 17% 30.06 in 5.0 mi SE 6.9 mph - N/A   Overcast
2:15 PM 93.2 °F 39.2 °F 15% 30.04 in 7.0 mi East 4.6 mph - N/A   Overcast
2:35 PM 93.2 °F 39.2 °F 15% 30.03 in 8.0 mi ESE 4.6 mph - N/A   Overcast
2:55 PM 91.4 °F 39.2 °F 16% 30.03 in 10.0 mi ESE 3.5 mph - N/A   Overcast
3:15 PM 93.2 °F 39.2 °F 15% 30.03 in 10.0 mi South 6.9 mph - N/A   Overcast
3:55 PM 86.0 °F 44.6 °F 23% 30.03 in 9.0 mi WSW 19.6 mph 24.2 mph N/A   Overcast
4:15 PM 86.0 °F 42.8 °F 22% 30.03 in 10.0 mi WSW 17.3 mph 23.0 mph N/A   Overcast
4:35 PM 89.6 °F 39.2 °F 17% 30.03 in 10.0 mi SSW 9.2 mph 35.7 mph N/A   Overcast
4:55 PM 89.6 °F 41.0 °F 18% 30.01 in 10.0 mi East 3.5 mph - N/A   Overcast
5:35 PM 89.6 °F 41.0 °F 18% 30.00 in 10.0 mi SE 3.5 mph - N/A   Overcast
5:55 PM 87.8 °F 44.6 °F 22% 30.00 in 10.0 mi SE 3.5 mph - N/A   Overcast
6:15 PM 87.8 °F 44.6 °F 22% 30.00 in 10.0 mi SSW 4.6 mph - N/A   Overcast
6:55 PM 84.2 °F 44.6 °F 25% 30.01 in 10.0 mi SW 12.7 mph - N/A   Overcast
7:55 PM 80.6 °F 46.4 °F 30% 30.03 in 10.0 mi WNW 6.9 mph - N/A   Overcast
8:55 PM 73.4 °F 46.4 °F 38% 30.04 in 10.0 mi SW 3.5 mph - N/A   Overcast
9:15 PM 71.6 °F 46.4 °F 41% 30.05 in 10.0 mi Calm Calm - N/A   Overcast
9:35 PM 68.0 °F 48.2 °F 49% 30.06 in 10.0 mi North 4.6 mph - N/A   Overcast
10:15 PM 69.8 °F 48.2 °F 46% 30.08 in 10.0 mi North 8.1 mph - N/A   Overcast
10:35 PM 71.6 °F 46.4 °F 41% 30.07 in 10.0 mi NNE 6.9 mph - N/A   Overcast
10:55 PM 69.8 °F 48.2 °F 46% 30.06 in 10.0 mi NE 8.1 mph - N/A   Overcast
11:35 PM 69.8 °F 48.2 °F 46% 30.07 in 10.0 mi WNW 5.8 mph - N/A   Overcast